Date String (YYYY-MM-DD hh:mm:ss) UTC,Instrument flags,Ambient pressure (hPa),Sample flow (lpm),Bypass flow (lpm),Sample temperature (°C),Ambient temperature (°C),ASC tube jacket temperature (°C),LED temperature (°C),Box temperature (°C),Sample RH (%),Span deviation,Mass concentration (μg/m³),Mass concentration (μg/m³),Mass concentration (μg/m³)
DateTimeUTC,F1_M11,P_M11,Q1_M11,Q2_M11,T1_M11,T2_M11,T3_M11,T4_M11,T5_M11,U1_M11,ZSPAN_M11,X0_M11,X2_M11,X1_M11
2022-01-15 02:00:00,,0833.9,4.99,0.00,22.3,21.9,00.0,31.5,23.9,09.2,0000.0,0001.58,0000.74,0000.49
2022-01-15 02:01:00,,0834.0,5.01,0.00,22.4,22.7,00.0,31.5,24.2,09.4,0000.0,0001.58,0000.74,0000.50
2022-01-15 02:02:00,,0834.0,4.99,0.00,22.6,23.5,00.0,31.5,24.5,09.6,0000.0,0001.63,0000.77,0000.51
2022-01-15 02:03:00,,0833.9,5.01,0.00,22.7,23.5,00.0,31.6,24.6,09.6,0000.0,0001.66,0000.78,0000.51
2022-01-15 02:04:00,,0834.0,5.01,0.00,22.7,23.2,00.0,31.6,24.6,09.5,0000.0,0001.65,0000.76,0000.52
2022-01-15 02:05:00,,0834.0,4.99,0.00,22.6,22.9,00.0,31.6,24.4,09.5,0000.0,0001.64,0000.76,0000.53
2022-01-15 02:06:00,,0834.0,4.99,0.00,22.6,22.6,00.0,31.6,24.3,09.3,0000.0,0001.86,0000.79,0000.54
2022-01-15 02:07:00,,0834.0,5.01,0.00,22.5,22.3,00.0,31.5,24.1,09.3,0000.0,0002.15,0000.80,0000.55
2022-01-15 02:08:00,,0834.1,4.99,0.00,22.4,22.2,00.0,31.5,24.0,09.4,0000.0,0002.30,0000.84,0000.56
2022-01-15 02:09:00,,0834.1,5.00,0.00,22.5,22.7,00.0,31.6,24.2,09.4,0000.0,0002.21,0000.85,0000.57
2022-01-15 02:10:00,,0834.2,5.01,0.00,22.7,23.5,00.0,31.6,24.5,09.5,0000.0,0002.05,0000.85,0000.58
2022-01-15 02:11:00,,0834.1,5.00,0.00,22.8,23.9,00.0,31.6,24.8,09.4,0000.0,0001.94,0000.83,0000.59
2022-01-15 02:12:00,,0834.1,5.00,0.00,22.8,23.6,00.0,31.7,24.8,09.3,0000.0,0001.90,0000.82,0000.59
2022-01-15 02:13:00,,0834.1,5.00,0.00,22.8,23.3,00.0,31.7,24.6,09.3,0000.0,0001.91,0000.82,0000.58
2022-01-15 02:14:00,,0834.1,5.00,0.00,22.8,22.9,00.0,31.7,24.5,09.4,0000.0,0001.99,0000.86,0000.59
2022-01-15 02:15:00,,0834.1,4.99,0.00,22.7,22.7,00.0,31.7,24.4,09.5,0000.0,0002.00,0000.86,0000.59
2022-01-15 02:16:00,,0834.2,5.00,0.00,22.6,22.4,00.0,31.7,24.3,09.5,0000.0,0002.33,0000.89,0000.59
2022-01-15 02:17:00,,0834.2,5.01,0.00,22.6,22.2,00.0,31.7,24.1,09.7,0000.0,0002.39,0000.90,0000.59
2022-01-15 02:18:00,,0834.2,4.99,0.00,22.6,22.7,00.0,31.7,24.3,09.8,0000.0,0002.59,0000.87,0000.58
2022-01-15 02:19:00,,0834.2,5.01,0.00,22.8,23.4,00.0,31.7,24.6,09.8,0000.0,0002.40,0000.83,0000.59
2022-01-15 02:20:00,,0834.2,4.99,0.00,22.9,24.0,00.0,31.7,24.9,09.7,0000.0,0002.39,0000.83,0000.58
2022-01-15 02:21:00,,0834.2,5.00,0.00,22.9,23.7,00.0,31.8,24.8,09.7,0000.0,0002.31,0000.80,0000.57
2022-01-15 02:22:00,,0834.2,5.00,0.00,22.9,23.3,00.0,31.8,24.7,09.7,0000.0,0002.45,0000.80,0000.57
2022-01-15 02:23:00,,0834.4,5.00,0.00,22.8,23.0,00.0,31.8,24.6,09.8,0000.0,0002.72,0000.81,0000.56
2022-01-15 02:24:00,,0834.3,5.00,0.00,22.8,22.7,00.0,31.8,24.4,09.9,0000.0,0002.75,0000.79,0000.55
2022-01-15 02:25:00,,0834.4,5.00,0.00,22.7,22.5,00.0,31.8,24.3,09.8,0000.0,0002.89,0000.79,0000.54
2022-01-15 02:26:00,,0834.4,4.99,0.00,22.7,22.3,00.0,31.8,24.2,09.7,0000.0,0003.00,0000.82,0000.55
2022-01-15 02:27:00,,0834.4,5.01,0.00,22.6,22.1,00.0,31.7,24.1,09.8,0000.0,0002.66,0000.78,0000.54
2022-01-15 02:28:00,,0834.4,4.99,0.00,22.5,22.1,00.0,31.7,24.1,09.8,0000.0,0002.37,0000.74,0000.53
2022-01-15 02:29:00,,0834.5,4.99,0.00,22.6,22.8,00.0,31.7,24.3,09.7,0000.0,0001.76,0000.74,0000.53
2022-01-15 02:30:00,,0834.5,5.00,0.00,22.8,23.5,00.0,31.7,24.6,09.6,0000.0,0001.78,0000.74,0000.52
2022-01-15 02:31:00,,0834.5,5.00,0.00,22.8,23.3,00.0,31.8,24.7,09.5,0000.0,0001.80,0000.73,0000.52
2022-01-15 02:32:00,,0834.5,5.00,0.00,22.8,23.0,00.0,31.8,24.5,09.3,0000.0,0002.00,0000.75,0000.52
2022-01-15 02:33:00,,0834.6,5.00,0.00,22.7,22.7,00.0,31.8,24.4,09.3,0000.0,0002.08,0000.78,0000.52
2022-01-15 02:34:00,,0834.5,4.99,0.00,22.7,22.5,00.0,31.7,24.3,09.3,0000.0,0001.84,0000.76,0000.52
2022-01-15 02:35:00,,0834.6,4.99,0.00,22.6,22.3,00.0,31.7,24.2,09.4,0000.0,0001.74,0000.76,0000.52
2022-01-15 02:36:00,,0834.6,5.02,0.00,22.6,22.1,00.0,31.7,24.2,09.4,0000.0,0002.20,0000.74,0000.52
2022-01-15 02:37:00,,0834.6,5.00,0.00,22.5,22.0,00.0,31.7,24.1,09.5,0000.0,0002.35,0000.70,0000.51
2022-01-15 02:38:00,,0834.6,4.99,0.00,22.5,21.9,00.0,31.7,24.0,09.6,0000.0,0002.60,0000.72,0000.52
2022-01-15 02:39:00,,0834.7,5.02,0.00,22.4,21.8,00.0,31.6,24.0,09.5,0000.0,0002.66,0000.74,0000.52
2022-01-15 02:40:00,,0834.7,5.00,0.00,22.5,22.4,00.0,31.6,24.1,09.6,0000.0,0002.81,0000.75,0000.52
2022-01-15 02:41:00,,0834.7,4.99,0.00,22.6,23.3,00.0,31.7,24.5,09.6,0000.0,0004.29,0000.76,0000.53
2022-01-15 02:42:00,,0834.7,4.99,0.00,22.8,23.8,00.0,31.7,24.7,09.6,0000.0,0004.29,0000.75,0000.52
2022-01-15 02:43:00,,0834.7,5.00,0.00,22.8,23.5,00.0,31.7,24.7,09.5,0000.0,0004.67,0000.77,0000.53
2022-01-15 02:44:00,,0834.6,5.01,0.00,22.8,23.1,00.0,31.7,24.6,09.6,0000.0,0004.76,0000.75,0000.54
2022-01-15 02:45:00,,0834.6,4.99,0.00,22.8,22.9,00.0,31.7,24.5,09.7,0000.0,0004.78,0000.77,0000.55
2022-01-15 02:46:00,,0834.6,5.00,0.00,22.7,22.6,00.0,31.7,24.4,09.8,0000.0,0004.82,0000.79,0000.55
2022-01-15 02:47:00,,0834.6,4.99,0.00,22.7,22.3,00.0,31.7,24.3,09.9,0000.0,0004.18,0000.78,0000.55
2022-01-15 02:48:00,,0834.6,5.00,0.00,22.6,22.2,00.0,31.7,24.2,10.0,0000.0,0004.67,0000.78,0000.55
2022-01-15 02:49:00,,0834.7,5.01,0.00,22.5,22.0,00.0,31.7,24.1,10.0,0000.0,0004.76,0000.79,0000.55
2022-01-15 02:50:00,,0834.7,5.00,0.00,22.5,21.9,00.0,31.6,24.0,10.1,0000.0,0004.89,0000.80,0000.54
2022-01-15 02:51:00,,0834.7,4.99,0.00,22.4,21.8,00.0,31.6,24.0,10.1,0000.0,0004.78,0000.80,0000.54
2022-01-15 02:52:00,,0834.7,5.01,0.00,22.4,21.7,00.0,31.6,23.9,10.1,0000.0,0004.26,0000.80,0000.55
2022-01-15 02:53:00,,0834.9,4.99,0.00,22.3,21.6,00.0,31.5,23.9,10.2,0000.0,0004.79,0000.78,0000.54
2022-01-15 02:54:00,,0834.9,5.00,0.00,22.3,21.9,00.0,31.5,23.9,10.2,0000.0,0004.76,0000.77,0000.53
2022-01-15 02:55:00,,0834.9,5.00,0.00,22.5,22.8,00.0,31.6,24.3,10.1,0000.0,0004.44,0000.79,0000.56
2022-01-15 02:56:00,,0834.9,5.00,0.00,22.6,23.1,00.0,31.6,24.5,09.9,0000.0,0004.43,0000.81,0000.60
2022-01-15 02:57:00,,0835.0,5.02,0.00,22.6,22.9,00.0,31.6,24.4,09.9,0000.0,0004.45,0000.85,0000.65
2022-01-15 02:58:00,,0835.0,4.99,0.00,22.6,22.6,00.0,31.6,24.3,10.0,0000.0,0004.52,0000.91,0000.70
2022-01-15 02:59:00,,0834.9,4.99,0.00,22.6,22.4,00.0,31.6,24.2,10.0,0000.0,0003.79,0000.97,0000.76
